Change the Weather History Date:

Wednesday, January 23, 2013

  Actual Average Record
Temperature  
Mean Temperature -1 °F -  
Max Temperature 5 °F -1 °F 33 °F (2000)
Min Temperature -7 °F -10 °F -49 °F (2002)
Degree Days  
Heating Degree Days 66    
Moisture  
Dew Point -11 °F    
Average Humidity 60    
Maximum Humidity 66    
Minimum Humidity 55    
Precipitation  
Precipitation 0.00 in - - ()
Sea Level Pressure  
Sea Level Pressure 29.93 in    
Wind  
Wind Speed 19 mph (NE)    
Max Wind Speed 23 mph    
Max Gust Speed 24 mph    
Visibility 10 miles    
Events      
Averages and records for this station are not official NWS values.
T = Trace of Precipitation, MM = Missing Value Source: NWS Daily Summary

Daily Weather History Graph

Daily Weather History Graph

Search for Another Location

Airport or City:

Trip Planner

Search our weather history database for the weather conditions in past years. The results will help you decide how hot, cold, wet, or windy it might be!

Date:

Astronomy

Jan. 23, 2013 Rise Set
Actual Time 11:12 AM AKST 4:32 PM AKST
Civil Twilight 9:59 AM AKST 5:45 PM AKST
Nautical Twilight 8:50 AM AKST 6:54 PM AKST
Astronomical Twilight 7:48 AM AKST 7:56 PM AKST
Moon 1:17 PM AKST (1/23) 9:09 AM AKST (1/23)
Length of Visible Light 7h 45m
Length of Day
5h 19m
Waxing Gibbous, 90% of the Moon is Illuminated
Jan 23
Waxing Gibbous
Jan 26
Full
Feb 3
Last Quarter
Feb 9
New
Feb 17
First Quarter

Hourly Weather History & Observations

Time (AKST) Temp. Windchill Dew Point Humidity Pressure Visibility Wind Dir Wind Speed Gust Speed Precip Events Conditions
12:16 AM 5.0 °F -14.7 °F -5.8 °F 61% 29.92 in 10.0 mi NE 18.4 mph - N/A   Clear
12:36 AM 5.0 °F -15.2 °F -5.8 °F 61% 29.92 in 10.0 mi NE 19.6 mph - N/A   Clear
12:56 AM 5.0 °F -15.7 °F -5.8 °F 61% 29.92 in 10.0 mi NE 20.7 mph - N/A   Clear
1:16 AM 3.2 °F -17.6 °F -7.6 °F 61% 29.92 in 10.0 mi NE 19.6 mph - N/A   Clear
1:36 AM 3.2 °F -17.6 °F -5.8 °F 66% 29.92 in 10.0 mi NE 19.6 mph - N/A   Clear
1:56 AM 3.2 °F -17.1 °F -7.6 °F 61% 29.92 in 10.0 mi NE 18.4 mph - N/A   Clear
2:16 AM 3.2 °F -16.5 °F -7.6 °F 61% 29.92 in 10.0 mi NE 17.3 mph - N/A   Clear
2:36 AM 3.2 °F -16.5 °F -7.6 °F 61% 29.92 in 10.0 mi NE 17.3 mph - N/A   Clear
2:56 AM 3.2 °F -17.1 °F -7.6 °F 61% 29.92 in 10.0 mi NE 18.4 mph - N/A   Clear
3:16 AM 3.2 °F -17.6 °F -7.6 °F 61% 29.92 in 10.0 mi NE 19.6 mph - N/A   Clear
3:36 AM 3.2 °F -18.1 °F -7.6 °F 61% 29.92 in 10.0 mi NE 20.7 mph - N/A   Clear
3:56 AM 3.2 °F -18.1 °F -7.6 °F 61% 29.91 in 10.0 mi NE 20.7 mph - N/A   Clear
4:16 AM 3.2 °F -18.6 °F -7.6 °F 61% 29.91 in 10.0 mi NE 21.9 mph - N/A   Clear
4:36 AM 3.2 °F -18.6 °F -7.6 °F 61% 29.90 in 10.0 mi NE 21.9 mph - N/A   Clear
4:56 AM 3.2 °F -19.0 °F -7.6 °F 61% 29.90 in 10.0 mi NE 23.0 mph - N/A   Clear
5:16 AM 3.2 °F -18.6 °F -7.6 °F 61% 29.90 in 10.0 mi NE 21.9 mph - N/A   Clear
5:36 AM 3.2 °F -18.1 °F -7.6 °F 61% 29.91 in 10.0 mi NE 20.7 mph - N/A   Clear
5:56 AM 3.2 °F -18.6 °F -7.6 °F 61% 29.90 in 10.0 mi NE 21.9 mph - N/A   Clear
6:16 AM 3.2 °F -17.6 °F -7.6 °F 61% 29.91 in 10.0 mi NE 19.6 mph - N/A   Clear
6:36 AM 3.2 °F -18.1 °F -7.6 °F 61% 29.91 in 10.0 mi NE 20.7 mph - N/A   Clear
6:56 AM 3.2 °F -18.6 °F -7.6 °F 61% 29.90 in 10.0 mi NE 21.9 mph - N/A   Clear
7:16 AM 1.4 °F -19.9 °F -9.4 °F 61% 29.90 in 10.0 mi NE 19.6 mph - N/A   Clear
7:36 AM 1.4 °F -19.9 °F -7.6 °F 66% 29.90 in 10.0 mi NE 19.6 mph - N/A   Clear
7:56 AM 3.2 °F -17.1 °F -7.6 °F 61% 29.90 in 10.0 mi NE 18.4 mph - N/A   Clear
8:16 AM 1.4 °F -18.8 °F -9.4 °F 61% 29.90 in 10.0 mi NE 17.3 mph - N/A   Clear
8:36 AM 1.4 °F -19.4 °F -9.4 °F 61% 29.90 in 10.0 mi NE 18.4 mph - N/A   Clear
8:56 AM 1.4 °F -18.8 °F -9.4 °F 61% 29.90 in 10.0 mi NE 17.3 mph - N/A   Clear
9:16 AM 1.4 °F -19.4 °F -9.4 °F 61% 29.91 in 10.0 mi NNE 18.4 mph - N/A   Clear
9:36 AM -0.4 °F -21.7 °F -9.4 °F 66% 29.90 in 10.0 mi NNE 18.4 mph - N/A   Clear
9:56 AM 1.4 °F -19.4 °F -7.6 °F 66% 29.91 in 10.0 mi NE 18.4 mph 24.2 mph N/A   Clear
10:16 AM 1.4 °F -19.4 °F -9.4 °F 61% 29.91 in 10.0 mi NE 18.4 mph - N/A   Clear
10:36 AM 1.4 °F -19.4 °F -9.4 °F 61% 29.91 in 10.0 mi NE 18.4 mph - N/A   Clear
10:56 AM -0.4 °F -21.2 °F -11.2 °F 60% 29.91 in 10.0 mi NE 17.3 mph - N/A   Clear
11:16 AM -0.4 °F -20.5 °F -11.2 °F 60% 29.92 in 10.0 mi NE 16.1 mph - N/A   Clear
11:36 AM -2.2 °F -22.2 °F -11.2 °F 66% 29.92 in 10.0 mi NE 15.0 mph - N/A   Clear
11:56 AM -2.2 °F -20.7 °F -11.2 °F 66% 29.91 in 10.0 mi NE 12.7 mph - N/A   Clear
12:16 PM -0.4 °F -20.5 °F -9.4 °F 66% 29.91 in 10.0 mi NE 16.1 mph - N/A   Clear
12:36 PM -0.4 °F -20.5 °F -11.2 °F 60% 29.91 in 10.0 mi NE 16.1 mph - N/A   Clear
12:56 PM -0.4 °F -19.9 °F -11.2 °F 60% 29.92 in 10.0 mi NE 15.0 mph - N/A   Clear
1:16 PM -0.4 °F -19.2 °F -9.4 °F 66% 29.92 in 10.0 mi NE 13.8 mph - N/A   Clear
1:36 PM 1.4 °F -18.8 °F -11.2 °F 56% 29.92 in 10.0 mi NE 17.3 mph - N/A   Clear
1:56 PM 1.4 °F -17.6 °F -9.4 °F 61% 29.92 in 10.0 mi NE 15.0 mph - N/A   Clear
2:16 PM 1.4 °F -17.6 °F -9.4 °F 61% 29.92 in 10.0 mi NE 15.0 mph - N/A   Clear
2:36 PM 1.4 °F -17.6 °F -11.2 °F 56% 29.92 in 10.0 mi NE 15.0 mph - N/A   Clear
2:56 PM 1.4 °F -21.0 °F -11.2 °F 56% 29.92 in 10.0 mi NE 21.9 mph - N/A   Clear
3:16 PM 1.4 °F -18.8 °F -11.2 °F 56% 29.92 in 10.0 mi NE 17.3 mph - N/A   Clear
3:36 PM 1.4 °F -19.9 °F -11.2 °F 56% 29.92 in 10.0 mi NNE 19.6 mph - N/A   Clear
3:56 PM 1.4 °F -19.4 °F -11.2 °F 56% 29.91 in 10.0 mi NE 18.4 mph - N/A   Clear
4:16 PM -0.4 °F -20.5 °F -11.2 °F 60% 29.92 in 10.0 mi NE 16.1 mph - N/A   Clear
4:36 PM -0.4 °F -21.2 °F -11.2 °F 60% 29.92 in 10.0 mi NE 17.3 mph - N/A   Clear
4:56 PM -0.4 °F -21.2 °F -13.0 °F 55% 29.93 in 10.0 mi NE 17.3 mph - N/A   Clear
5:16 PM -0.4 °F -22.3 °F -11.2 °F 60% 29.93 in 10.0 mi NE 19.6 mph - N/A   Clear
5:36 PM -0.4 °F -22.3 °F -13.0 °F 55% 29.94 in 10.0 mi NE 19.6 mph - N/A   Clear
5:56 PM -0.4 °F -23.3 °F -13.0 °F 55% 29.94 in 10.0 mi NE 21.9 mph - N/A   Clear
6:16 PM -0.4 °F -22.3 °F -13.0 °F 55% 29.94 in 10.0 mi NE 19.6 mph - N/A   Clear
6:36 PM -2.2 °F -24.1 °F -14.8 °F 55% 29.95 in 10.0 mi NE 18.4 mph - N/A   Clear
6:56 PM -2.2 °F -23.5 °F -14.8 °F 55% 29.96 in 10.0 mi NE 17.3 mph - N/A   Clear
7:16 PM -2.2 °F -24.1 °F -14.8 °F 55% 29.96 in 10.0 mi ENE 18.4 mph - N/A   Clear
7:36 PM -4.0 °F -26.4 °F -16.6 °F 55% 29.96 in 10.0 mi NE 18.4 mph - N/A   Clear
7:56 PM -4.0 °F -27.0 °F -14.8 °F 60% 29.96 in 10.0 mi NE 19.6 mph - N/A   Clear
8:16 PM -2.2 °F -25.2 °F -13.0 °F 60% 29.97 in 10.0 mi NE 20.7 mph - N/A   Clear
8:36 PM -2.2 °F -23.5 °F -14.8 °F 55% 29.98 in 10.0 mi NE 17.3 mph - N/A   Clear
8:56 PM -2.2 °F -23.5 °F -14.8 °F 55% 29.98 in 10.0 mi ENE 17.3 mph - N/A   Clear
9:16 PM -2.2 °F -22.2 °F -14.8 °F 55% 29.99 in 10.0 mi ENE 15.0 mph - N/A   Clear
9:36 PM -5.8 °F -27.5 °F -16.6 °F 60% 29.99 in 10.0 mi ENE 16.1 mph - N/A   Clear
9:56 PM -4.0 °F -24.5 °F -14.8 °F 60% 30.00 in 10.0 mi NE 15.0 mph - N/A   Clear
10:16 PM -5.8 °F -26.8 °F -16.6 °F 60% 30.00 in 10.0 mi NE 15.0 mph - N/A   Clear
10:36 PM -5.8 °F -28.2 °F -16.6 °F 60% 30.00 in 10.0 mi ENE 17.3 mph - N/A   Clear
10:56 PM -5.8 °F -27.5 °F -16.6 °F 60% 30.01 in 10.0 mi NE 16.1 mph - N/A   Clear
11:16 PM -7.6 °F -28.3 °F -16.6 °F 65% 30.02 in 10.0 mi ENE 13.8 mph - N/A   Clear
11:36 PM -7.6 °F -27.5 °F -16.6 °F 65% 30.02 in 10.0 mi ENE 12.7 mph - N/A   Clear
11:56 PM -7.6 °F -28.3 °F -16.6 °F 65% 30.03 in 10.0 mi ENE 13.8 mph - N/A   Clear